Location: Biltmore Gardens
(41.6070°N, 83.4666°W)
Time: 08:28:12
(UTC+00:00)

Transit 4A - All Passes

Search period start: 20 April 2021 00:00
Search period end: 30 April 2021 00:00
Orbit: 869 x 975 km, 66.8° (Epoch: 19 April)

Date Brightness Start Highest point End Pass type
(mag) Time Alt. Az. Time Alt. Az. Time Alt. Az.
20 Apr - 04:16:57 10° S 04:22:56 47° ESE 04:28:47 10° NE visible
20 Apr - 06:03:53 10° WSW 06:09:27 33° NW 06:14:55 10° NNE visible
20 Apr - 11:35:17 10° N 11:37:34 12° NNE 11:39:49 10° NE daylight
20 Apr - 13:19:37 10° NNW 13:25:23 52° NE 13:31:02 10° SE daylight
20 Apr - 15:06:41 10° NW 15:11:19 25° WSW 15:15:55 10° SSW daylight
21 Apr - 04:25:55 10° SSW 04:32:09 70° ESE 04:38:15 10° NE visible
21 Apr - 06:14:05 10° W 06:19:02 24° NW 06:23:55 10° N visible
21 Apr - 11:43:46 10° N 11:47:23 16° NE 11:50:55 10° ENE daylight
21 Apr - 13:28:51 10° NNW 13:34:46 76° ENE 13:40:33 10° SE daylight
21 Apr - 15:16:58 10° WNW 15:20:21 16° WSW 15:23:42 10° SW daylight
22 Apr - 02:52:09 10° SE 02:55:49 16° ESE 02:59:26 10° ENE visible
22 Apr - 04:35:09 10° SSW 04:41:26 82° WNW 04:47:35 10° NNE visible
22 Apr - 06:24:36 10° W 06:28:43 18° NW 06:32:48 10° N visible
22 Apr - 11:52:36 10° N 11:57:05 22° NE 12:01:30 10° E daylight
22 Apr - 13:38:11 10° NNW 13:44:03 74° WSW 13:49:49 10° SSE daylight
23 Apr - 02:59:55 10° SSE 03:04:51 25° ESE 03:09:42 10° NE visible
23 Apr - 04:44:39 10° SW 04:50:48 57° NW 04:56:50 10° NNE visible
23 Apr - 06:35:32 10° WNW 06:38:30 14° NW 06:41:26 10° N visible
23 Apr - 12:01:35 10° NNW 12:06:42 30° NE 12:11:43 10° ESE daylight
23 Apr - 13:47:38 10° NW 13:53:16 49° WSW 13:58:48 10° S daylight
24 Apr - 03:08:17 10° S 03:13:57 37° ESE 03:19:31 10° NE visible
24 Apr - 04:54:24 10° WSW 05:00:15 40° NW 05:05:59 10° NNE visible
24 Apr - 06:47:39 10° NW 06:48:23 10° NNW 06:49:06 10° NNW visible
24 Apr - 10:27:49 10° NNE 10:28:07 10° NNE 10:28:25 10° NNE daylight
24 Apr - 12:10:39 10° NNW 12:16:13 41° NE 12:21:41 10° ESE daylight
24 Apr - 13:57:17 10° NW 14:02:23 32° WSW 14:07:28 10° S daylight
25 Apr - 03:17:03 10° S 03:23:07 55° ESE 03:29:05 10° NE visible
25 Apr - 05:04:26 10° WSW 05:09:46 29° NW 05:15:02 10° NNE visible
25 Apr - 10:35:11 10° N 10:37:59 13° NE 10:40:45 10° ENE daylight
25 Apr - 12:19:49 10° NNW 12:25:39 60° ENE 12:31:22 10° SE daylight
25 Apr - 14:07:12 10° WNW 14:11:27 21° WSW 14:15:41 10° SSW daylight
26 Apr - 01:44:48 10° ESE 01:46:58 12° E 01:49:06 10° E visible
26 Apr - 03:26:07 10° SSW 03:32:22 80° ESE 03:38:30 10° NNE visible
26 Apr - 05:14:44 10° W 05:19:24 22° NW 05:24:00 10° N visible
26 Apr - 10:43:49 10° N 10:47:45 18° NE 10:51:38 10° E daylight
26 Apr - 12:29:05 10° NNW 12:34:59 87° ENE 12:40:47 10° SSE daylight
26 Apr - 14:17:47 10° WNW 14:20:27 13° WSW 14:23:05 10° SW daylight
27 Apr - 01:51:45 10° SSE 01:55:57 19° ESE 02:00:05 10° ENE visible
27 Apr - 03:35:27 10° SW 03:41:41 72° WNW 03:47:47 10° NNE visible
27 Apr - 05:25:23 10° WNW 05:29:07 16° NW 05:32:48 10° N visible
27 Apr - 10:52:42 10° N 10:57:26 24° NE 11:02:04 10° E daylight
27 Apr - 12:38:27 10° NW 12:44:15 64° WSW 12:49:57 10° SSE daylight
28 Apr - 01:59:47 10° SSE 02:05:00 29° ESE 02:10:08 10° NE visible
28 Apr - 03:45:03 10° SW 03:51:05 50° NW 03:57:00 10° NNE visible
28 Apr - 05:36:33 10° NW 05:38:55 12° NNW 05:41:17 10° N visible
28 Apr - 11:01:42 10° NNW 11:07:00 33° NE 11:12:12 10° ESE daylight
28 Apr - 12:47:58 10° NW 12:53:26 42° WSW 12:58:50 10° S daylight
29 Apr - 02:08:18 10° S 02:14:08 42° ESE 02:19:51 10° NE visible
29 Apr - 03:54:53 10° WSW 04:00:33 36° NW 04:06:07 10° NNE visible
29 Apr - 09:26:54 10° NNE 09:28:33 11° NNE 09:30:12 10° NE visible
29 Apr - 11:10:50 10° NNW 11:16:29 47° NE 11:22:03 10° SE daylight
29 Apr - 12:57:41 10° NW 13:02:32 28° WSW 13:07:21 10° SSW daylight
